loading
|

THOR ABLESTAR DEB, 334

Orbit data source: Space-Track

THOR ABLESTAR DEB, 334 is space debris in LEO originally from a launch on Thu, 29 Jun 1961 UTC launched from the Air Force Eastern Test Range (AFETR). Debris objects in space refer to the collection of defunct objects orbiting the Earth. Examples of debris include non-operational satellites, rocket bodies, and fragments generated from explosions, collisions, or faulty payload assembly.

Loading next visibility...
Loading greatness...
THOR ABLESTAR DEB details
Identifier
334, 1961-015DL
Orbit
LEO
Last TLE update21 hours ago
Origin
Flag of USUSAF SSD (US)
ManufacturerUnknown
Mission statusUnknown
MissionUnknown
Bus & MotorUnknown
MassUnknown
Launch date (UTC)
1961-06-29 (63 years ago)
Launch vehicleUnknown
Launch site
Air Force Eastern Test Range (AFETR)
Object type
Payload
Rocket body
Debris
Radar Cross SectionSmall (<0.1 m²)

Expand to show TLE details & history

TLE from 21 hours ago
0 THOR ABLESTAR DEB
1   334U 61015DL  24250.83482392  .00000280  00000-0  27290-3 0  9998
2   334  66.9256 321.3320 0083418 214.9423 144.6167 13.91550912206282
Epoch: 2024-09-06T20:02Z
Definitive object data (Epoch: 2024-09-06T20:02:08.786Z)
Latitude0.00004°
Longitude34.39374°
Altitude975.118 km
Speed7.339 km/s
True Right ascension21h 25m 19s
True Declination0° 00' 00"
Sunlit
Object was in full shadow at TLE epoch
Predictive object data (real-time)
Latitude61.064°
Longitude82.30827°
Altitude980.908 km
Speed7.343 km/s
Apparent Right ascension22h 38m 14s
Apparent Declination17° 00' 44"
Sunlit
Object is in daylight
Predictive observer data (real-time)
Local Sidereal Time09:13:38
Azimuth336.585° NNW
Elevation-29.755°
Doppler factor1
Orbital elements
Apogee982.472 km
Perigee860.686 km
Semi-major axis7,299.716 km
Eccentricity0.0083418
Inclination66.9256°
RAAN321.332°
Arg. of periapsis214.9423°
True anomaly145.16553°
Mean anomaly144.6167°
Eccentric anomaly144.89158°
Mean motion3.48004 °/min
BSTAR0.0002729
Period103.45 mins
No data available

THOR ABLESTAR DEB Visibility forecast

Observer location: 39.9160978°, -105.1181434

THOR ABLESTAR DEB is not visible in the next 10 days
Span
Click to sort rows by Start time (UTC) header in descending order
Start Az.
Max El. time (UTC)
Max El. Az.
Max El.
End time (UTC)
End Az.